COSMOS 2251 DEB, 34979

Orbit data source: Space-Track

COSMOS 2251 DEB, 34979 is space debris in LEO originally from a launch on Wed, 16 Jun 1993 UTC launched from the Plesetsk Missile And Space Complex (PKMTR). The debris from Iridium 33, an American commercial communications satellite, has been tracked extensively since its accidental collision with the defunct Russian satellite Cosmos 2251 in 2009. This event, occurring at high speed in low Earth orbit (LEO), generated thousands of pieces of space debris, significantly increasing the risk of further collisions. The Iridium 33 debris cloud has impacted space traffic management and orbital debris mitigation strategies, making it a subject of ongoing study in space situational awareness.

Loading next visibility...
Identifier
34979, 1993-036AFJ
Orbit
LEO
Country
Flag of CISCIS
Related business
Manufacturer
Unknown
Mission
Spacecraft
Bus & Motor
Unknown
Mass
Unknown
Launch date (UTC)
1993-06-16 (33 years ago)
Launch vehicle
Unknown
Launch site
Plesetsk Missile And Space Complex (PKMTR)
Object type
Payload
Rocket body
Debris
Shape & HBR
Unknown shape, 0.1 m
Radar Cross Section
Medium (>0.1 m² and <1 m²)

Expand to show TLE details & history
Last TLE update: 16 hours ago

TLE from 16 hours ago
0 COSMOS 2251 DEB
1 34979U 93036AFJ 26207.98629846  .00005913  00000-0  72010-3 0  9993
2 34979  74.0375 180.7076 0047135 205.4783 154.4072 14.82837057915708
Epoch: 2026-07-26T23:40Z
TLE epoch observation values (Epoch: 2026-07-26T23:40:16.186Z)
Latitude
-0.00005°
Longitude
-119.03622°
Altitude
652.836 km
Speed
7.515 km/s
True Right ascension
12h 02m 49s
True Declination
0° 00' 00"
Sunlit
Object was in daylight at epoch
Visualization orbit readout
Latitude
Unknown
Longitude
Unknown
Altitude
Unknown
Speed
Unknown
Apparent Right ascension
Unknown
Apparent Declination
Unknown
Sunlit
N/A
Visualization observer readout
Local Sidereal Time
05:19:19
Azimuth
Unknown
Elevation
Unknown
Doppler factor
Unknown
Orbital elements
Apogee altitude
650.932 km
Perigee altitude
584.979 km
Semi-major axis
6,996.092 km
Eccentricity
0.00471
Inclination
74.0375°
RAAN
180.7076°
Arg. of periapsis
205.4783°
True anomaly
154.63929°
Mean anomaly
154.4072°
Eccentric anomaly
154.52337°
Mean motion
3.70903 °/min
Orbital period
97.06 mins
BSTAR
0.0007201
Loading maneuver chart data...
Computing Atmospheric mass density...
Loading historical data...
Loading historical data...
Loading historical data...
Loading historical data...
Loading historical data...
Loading historical data...
Loading historical data...

Documentation

Showing up to 5 results
|